| time (UTC) | temp C | wind direction | speed KPH | gust KPH | rain 1hr cm | rain 24hr cm | rain mn cm | humidity % | barometer mb |
| 20260506180354 | 26 | 79 | 3.2 | 11.3 | 0.00 | 0.00 | 0.00 | 79 | 1011.9 |
| 20260506175852 | 26 | 80 | 4.8 | 14.5 | 0.00 | 0.00 | 0.00 | 79 | 1012.0 |
| 20260506175350 | 26 | 69 | 4.8 | 14.5 | 0.00 | 0.00 | 0.00 | 79 | 1012.1 |
| 20260506174850 | 26 | 132 | 4.8 | 12.9 | 0.00 | 0.00 | 0.00 | 79 | 1012.1 |
| 20260506174349 | 26 | 81 | 3.2 | 11.3 | 0.00 | 0.00 | 0.00 | 79 | 1012.1 |
| 20260506173850 | 26 | 105 | 3.2 | 11.3 | 0.00 | 0.00 | 0.00 | 80 | 1012.2 |
| 20260506173350 | 26 | 111 | 3.2 | 11.3 | 0.00 | 0.00 | 0.00 | 82 | 1012.1 |
| 20260506172850 | 25 | 92 | 3.2 | 9.7 | 0.00 | 0.00 | 0.00 | 83 | 1012.1 |
| 20260506172350 | 25 | 67 | 3.2 | 14.5 | 0.00 | 0.00 | 0.00 | 82 | 1012.1 |
| 20260506171850 | 25 | 78 | 3.2 | 14.5 | 0.00 | 0.00 | 0.00 | 83 | 1012.1 |
| 20260506171345 | 25 | 80 | 3.2 | 9.7 | 0.00 | 0.00 | 0.00 | 84 | 1012.4 |
| 20260506170846 | 25 | 87 | 3.2 | 8.0 | 0.00 | 0.00 | 0.00 | 83 | 1012.2 |
| 20260506170345 | 25 | 85 | 3.2 | 11.3 | 0.00 | 0.00 | 0.00 | 83 | 1012.2 |
| 20260506165846 | 25 | 85 | 3.2 | 11.3 | 0.00 | 0.00 | 0.00 | 82 | 1012.1 |
| 20260506165346 | 25 | 62 | 3.2 | 11.3 | 0.00 | 0.00 | 0.00 | 83 | 1012.2 |
| 20260506165116 | 25 | 59 | 3.2 | 11.3 | 0.00 | 0.00 | 0.00 | 82 | 1012.1 |
| 20260506163846 | 25 | 91 | 1.6 | 9.7 | 0.00 | 0.00 | 0.00 | 83 | 1012.2 |
| 20260506163346 | 25 | 84 | 3.2 | 6.4 | 0.00 | 0.00 | 0.00 | 84 | 1012.1 |
| 20260506162846 | 25 | 84 | 3.2 | 6.4 | 0.00 | 0.00 | 0.00 | 83 | 1012.1 |
| 20260506162617 | 25 | 87 | 3.2 | 6.4 | 0.00 | 0.00 | 0.00 | 84 | 1012.1 |
| 20260506161345 | 25 | 89 | 1.6 | 9.7 | 0.00 | 0.00 | 0.00 | 84 | 1012.1 |
| 20260506160842 | 25 | 97 | 1.6 | 9.7 | 0.00 | 0.00 | 0.00 | 84 | 1012.0 |
| 20260506160613 | 25 | 151 | 1.6 | 8.0 | 0.00 | 0.00 | 0.00 | 84 | 1012.0 |
| 20260506160111 | 25 | 152 | 1.6 | 8.0 | 0.00 | 0.00 | 0.00 | 84 | 1011.9 |
| 20260506155338 | 25 | 153 | 1.6 | 8.0 | 0.00 | 0.00 | 0.00 | 86 | 1011.8 |
| 20260506154838 | 24 | 157 | 1.6 | 4.8 | 0.00 | 0.00 | 0.00 | 87 | 1011.8 |
| 20260506154333 | 24 | 158 | 1.6 | 8.0 | 0.00 | 0.00 | 0.00 | 87 | 1011.8 |
| 20260506153834 | 24 | 158 | 1.6 | 8.0 | 0.00 | 0.00 | 0.00 | 86 | 1011.8 |
| 20260506153332 | 24 | 161 | 0.0 | 3.2 | 0.00 | 0.00 | 0.00 | 87 | 1011.7 |
| 20260506152832 | 24 | 161 | 0.0 | 3.2 | 0.00 | 0.00 | 0.00 | 87 | 1011.7 |
| 20260506152332 | 24 | 161 | 0.0 | 3.2 | 0.00 | 0.00 | 0.00 | 87 | 1011.7 |
| 20260506151831 | 24 | 161 | 0.0 | 3.2 | 0.00 | 0.00 | 0.00 | 87 | 1011.5 |
| 20260506151324 | 24 | 161 | 0.0 | 6.4 | 0.00 | 0.00 | 0.00 | 87 | 1011.5 |
| 20260506150817 | 24 | 161 | 1.6 | 6.4 | 0.00 | 0.00 | 0.00 | 87 | 1011.4 |
| 20260506150311 | 24 | 161 | 0.0 | 3.2 | 0.00 | 0.00 | 0.00 | 87 | 1011.3 |
| 20260506145805 | 24 | 161 | 0.0 | 3.2 | 0.00 | 0.00 | 0.00 | 87 | 1011.3 |
| 20260506145258 | 24 | 161 | 0.0 | 3.2 | 0.00 | 0.00 | 0.00 | 87 | 1011.3 |
| 20260506144753 | 24 | 161 | 1.6 | 6.4 | 0.00 | 0.00 | 0.00 | 87 | 1011.3 |
| 20260506144518 | 23 | 161 | 1.6 | 6.4 | 0.00 | 0.00 | 0.00 | 87 | 1011.3 |
| 20260506143741 | 23 | 161 | 1.6 | 6.4 | 0.00 | 0.00 | 0.00 | 87 | 1011.4 |
| 20260506143235 | 23 | 161 | 0.0 | 3.2 | 0.00 | 0.00 | 0.00 | 88 | 1011.3 |
| 20260506142728 | 23 | 161 | 0.0 | 3.2 | 0.00 | 0.00 | 0.00 | 88 | 1011.1 |
| 20260506142223 | 23 | 161 | 1.6 | 6.4 | 0.00 | 0.00 | 0.00 | 89 | 1011.1 |
| 20260506141717 | 23 | 161 | 1.6 | 6.4 | 0.00 | 0.00 | 0.00 | 89 | 1010.9 |
| 20260506141211 | 23 | 161 | 0.0 | 3.2 | 0.00 | 0.00 | 0.00 | 90 | 1010.8 |
| 20260506140705 | 23 | 161 | 1.6 | 6.4 | 0.00 | 0.00 | 0.00 | 90 | 1010.8 |
| 20260506140159 | 23 | 161 | 1.6 | 8.0 | 0.00 | 0.00 | 0.00 | 90 | 1010.7 |
| 20260506135923 | 23 | 161 | 1.6 | 8.0 | 0.00 | 0.00 | 0.00 | 90 | 1010.6 |
| 20260506135147 | 23 | 107 | 1.6 | 4.8 | 0.00 | 0.00 | 0.00 | 91 | 1010.5 |
| 20260506134641 | 23 | 107 | 1.6 | 4.8 | 0.00 | 0.00 | 0.00 | 91 | 1010.4 |
| 20260506134135 | 23 | 117 | 1.6 | 6.4 | 0.00 | 0.00 | 0.00 | 91 | 1010.2 |
| 20260506133629 | 23 | 117 | 1.6 | 6.4 | 0.00 | 0.00 | 0.00 | 91 | 1009.9 |
| 20260506133123 | 23 | 111 | 1.6 | 9.7 | 0.00 | 0.00 | 0.00 | 91 | 1010.0 |
| 20260506132617 | 23 | 111 | 3.2 | 9.7 | 0.00 | 0.00 | 0.00 | 91 | 1010.0 |
| 20260506132342 | 23 | 128 | 1.6 | 9.7 | 0.00 | 0.00 | 0.00 | 91 | 1009.8 |
| 20260506131605 | 23 | 131 | 1.6 | 6.4 | 0.00 | 0.00 | 0.00 | 91 | 1009.9 |
| 20260506131059 | 23 | 130 | 1.6 | 6.4 | 0.00 | 0.00 | 0.00 | 91 | 1009.7 |
| 20260506130554 | 23 | 130 | 1.6 | 6.4 | 0.00 | 0.00 | 0.00 | 91 | 1009.6 |
| 20260506130317 | 23 | 128 | 1.6 | 9.7 | 0.00 | 0.00 | 0.00 | 91 | 1009.5 |
| 20260506125035 | 23 | 188 | 1.6 | 8.0 | 0.00 | 0.00 | 0.00 | 91 | 1009.3 |
| 20260506124529 | 23 | 188 | 1.6 | 8.0 | 0.00 | 0.00 | 0.00 | 91 | 1009.3 |
| 20260506124022 | 23 | 191 | 1.6 | 4.8 | 0.00 | 0.00 | 0.00 | 91 | 1009.3 |
| 20260506123517 | 23 | 191 | 1.6 | 6.4 | 0.00 | 0.00 | 0.00 | 91 | 1009.5 |
| 20260506123015 | 23 | 191 | 1.6 | 6.4 | 0.00 | 0.00 | 0.00 | 91 | 1009.5 |
| 20260506122515 | 23 | 178 | 1.6 | 8.0 | 0.00 | 0.00 | 0.00 | 91 | 1009.3 |
| 20260506122244 | 23 | 178 | 1.6 | 8.0 | 0.00 | 0.00 | 0.00 | 91 | 1009.3 |
| 20260506121514 | 23 | 188 | 0.0 | 4.8 | 0.00 | 0.00 | 0.00 | 90 | 1009.5 |
| 20260506121011 | 23 | 188 | 1.6 | 6.4 | 0.00 | 0.00 | 0.00 | 91 | 1009.5 |
| 20260506120512 | 23 | 188 | 1.6 | 6.4 | 0.00 | 0.00 | 0.00 | 90 | 1009.6 |
| 20260506115511 | 23 | 188 | 1.6 | 4.8 | 0.00 | 0.00 | 0.00 | 90 | 1009.5 |
| 20260506115009 | 23 | 188 | 0.0 | 4.8 | 0.00 | 0.00 | 0.00 | 91 | 1009.3 |
| 20260506114508 | 23 | 188 | 0.0 | 1.6 | 0.00 | 0.00 | 0.00 | 90 | 1009.3 |
| 20260506114005 | 23 | 188 | 0.0 | 4.8 | 0.00 | 0.00 | 0.00 | 90 | 1009.5 |
| 20260506113734 | 23 | 188 | 0.0 | 4.8 | 0.00 | 0.00 | 0.00 | 90 | 1009.5 |
| 20260506113231 | 23 | 188 | 0.0 | 3.2 | 0.00 | 0.00 | 0.00 | 90 | 1009.3 |
| 20260506112459 | 23 | 188 | 0.0 | 0.0 | 0.00 | 0.00 | 0.00 | 90 | 1009.3 |
| 20260506111957 | 23 | 188 | 0.0 | 1.6 | 0.00 | 0.00 | 0.00 | 90 | 1009.5 |
| 20260506111508 | 23 | 188 | 0.0 | 1.6 | 0.00 | 0.00 | 0.00 | 90 | 1009.6 |
| 20260506111224 | 23 | 188 | 0.0 | 3.2 | 0.00 | 0.00 | 0.00 | 90 | 1009.6 |
| 20260506110451 | 23 | 188 | 1.6 | 3.2 | 0.00 | 0.00 | 0.00 | 90 | 1009.5 |
| 20260506110222 | 23 | 188 | 0.0 | 3.2 | 0.00 | 0.00 | 0.00 | 90 | 1009.5 |
| 20260506105719 | 23 | 188 | 0.0 | 3.2 | 0.00 | 0.00 | 0.00 | 91 | 1009.3 |
| 20260506104449 | 23 | 188 | 0.0 | 4.8 | 0.00 | 0.00 | 0.00 | 91 | 1009.3 |
| 20260506103946 | 23 | 188 | 1.6 | 6.4 | 0.00 | 0.00 | 0.00 | 91 | 1009.2 |
| 20260506103447 | 23 | 188 | 1.6 | 6.4 | 0.00 | 0.00 | 0.00 | 91 | 1009.1 |
| 20260506102947 | 23 | 188 | 0.0 | 6.4 | 0.00 | 0.00 | 0.00 | 91 | 1009.2 |
| 20260506102447 | 23 | 188 | 0.0 | 6.4 | 0.00 | 0.00 | 0.00 | 91 | 1009.3 |
| 20260506101946 | 23 | 189 | 0.0 | 3.2 | 0.00 | 0.00 | 0.00 | 91 | 1009.3 |
| 20260506101446 | 23 | 189 | 0.0 | 3.2 | 0.00 | 0.00 | 0.00 | 91 | 1009.3 |
| 20260506100947 | 23 | 189 | 1.6 | 4.8 | 0.00 | 0.00 | 0.00 | 91 | 1009.3 |
| 20260506100717 | 23 | 189 | 1.6 | 4.8 | 0.00 | 0.00 | 0.00 | 91 | 1009.3 |
| 20260506095947 | 23 | 188 | 1.6 | 4.8 | 0.00 | 0.00 | 0.00 | 91 | 1009.5 |
| 20260506094947 | 23 | 189 | 3.2 | 12.9 | 0.00 | 0.00 | 0.00 | 91 | 1009.3 |
| 20260506094446 | 23 | 167 | 1.6 | 9.7 | 0.00 | 0.00 | 0.00 | 91 | 1009.3 |
| 20260506093946 | 23 | 168 | 1.6 | 11.3 | 0.00 | 0.00 | 0.00 | 91 | 1009.2 |
| 20260506093447 | 23 | 157 | 1.6 | 11.3 | 0.00 | 0.00 | 0.00 | 91 | 1009.3 |
| 20260506093215 | 23 | 152 | 3.2 | 11.3 | 0.00 | 0.00 | 0.00 | 91 | 1009.2 |
| 20260506092445 | 23 | 211 | 3.2 | 11.3 | 0.00 | 0.00 | 0.00 | 91 | 1009.2 |
| 20260506091942 | 23 | 190 | 3.2 | 9.7 | 0.00 | 0.00 | 0.00 | 90 | 1009.2 |
| 20260506091442 | 23 | 175 | 3.2 | 9.7 | 0.00 | 0.00 | 0.00 | 90 | 1009.1 |
| 20260506090942 | 23 | 180 | 3.2 | 12.9 | 0.00 | 0.00 | 0.00 | 90 | 1008.9 |
| 20260506090442 | 23 | 155 | 3.2 | 12.9 | 0.00 | 0.00 | 0.00 | 90 | 1009.1 |
| 20260506090214 | 23 | 107 | 3.2 | 12.9 | 0.00 | 0.00 | 0.00 | 90 | 1009.0 |
| 20260506085445 | 23 | 164 | 3.2 | 12.9 | 0.00 | 0.00 | 0.00 | 90 | 1008.9 |
| 20260506084442 | 23 | 187 | 3.2 | 14.5 | 0.00 | 0.00 | 0.00 | 89 | 1009.1 |
| 20260506083942 | 23 | 163 | 4.8 | 14.5 | 0.00 | 0.00 | 0.00 | 89 | 1009.2 |
| 20260506083441 | 23 | 193 | 4.8 | 11.3 | 0.00 | 0.00 | 0.00 | 89 | 1009.2 |
| 20260506082939 | 23 | 155 | 6.4 | 16.1 | 0.00 | 0.00 | 0.00 | 89 | 1009.2 |
| 20260506082707 | 23 | 152 | 4.8 | 16.1 | 0.00 | 0.00 | 0.00 | 89 | 1009.2 |
| 20260506081935 | 23 | 138 | 4.8 | 14.5 | 0.00 | 0.00 | 0.00 | 89 | 1009.2 |
| 20260506081435 | 23 | 150 | 4.8 | 14.5 | 0.00 | 0.00 | 0.00 | 89 | 1009.3 |
| 20260506080934 | 23 | 165 | 4.8 | 11.3 | 0.00 | 0.00 | 0.00 | 89 | 1009.6 |
| 20260506080434 | 23 | 162 | 3.2 | 14.5 | 0.00 | 0.00 | 0.00 | 89 | 1009.5 |
| 20260506073410 | 23 | 159 | 1.6 | 8.0 | 0.00 | 0.00 | 0.00 | 89 | 1009.6 |
| 20260506072904 | 23 | 161 | 1.6 | 8.0 | 0.00 | 0.00 | 0.00 | 89 | 1009.7 |
| 20260506072358 | 23 | 161 | 1.6 | 8.0 | 0.00 | 0.00 | 0.00 | 89 | 1009.7 |
| 20260506071853 | 23 | 163 | 1.6 | 8.0 | 0.00 | 0.00 | 0.00 | 89 | 1009.9 |
| 20260506071347 | 23 | 163 | 1.6 | 11.3 | 0.00 | 0.00 | 0.00 | 89 | 1009.8 |
| 20260506070841 | 23 | 165 | 1.6 | 11.3 | 0.00 | 0.00 | 0.00 | 89 | 1009.8 |
| 20260506070335 | 23 | 139 | 1.6 | 8.0 | 0.00 | 0.00 | 0.00 | 89 | 1009.9 |
| 20260506062247 | 23 | 175 | 3.2 | 12.9 | 0.00 | 0.00 | 0.00 | 88 | 1009.8 |
| 20260506061741 | 23 | 159 | 3.2 | 12.9 | 0.00 | 0.00 | 0.00 | 88 | 1009.8 |
| 20260506061235 | 23 | 113 | 4.8 | 16.1 | 0.00 | 0.00 | 0.00 | 88 | 1010.0 |
| 20260506060729 | 23 | 92 | 4.8 | 16.1 | 0.00 | 0.00 | 0.00 | 88 | 1009.9 |
| 20260506060454 | 23 | 160 | 3.2 | 12.9 | 0.00 | 0.00 | 0.00 | 88 | 1009.8 |
| 20260506051210 | 24 | 171 | 3.2 | 17.7 | 0.00 | 0.00 | 0.00 | 87 | 1009.8 |
| 20260506050939 | 24 | 101 | 3.2 | 12.9 | 0.00 | 0.00 | 0.00 | 87 | 1009.8 |
| 20260506050206 | 24 | 154 | 4.8 | 14.5 | 0.00 | 0.00 | 0.00 | 87 | 1009.9 |
| 20260506044703 | 24 | 169 | 3.2 | 12.9 | 0.00 | 0.00 | 0.00 | 86 | 1009.7 |
| 20260506044204 | 25 | 123 | 3.2 | 11.3 | 0.00 | 0.00 | 0.00 | 86 | 1009.7 |
| 20260506043932 | 25 | 113 | 3.2 | 11.3 | 0.00 | 0.00 | 0.00 | 86 | 1009.7 |
| 20260506043202 | 25 | 107 | 3.2 | 9.7 | 0.00 | 0.00 | 0.00 | 86 | 1009.7 |
| 20260506042701 | 25 | 123 | 3.2 | 9.7 | 0.00 | 0.00 | 0.00 | 86 | 1009.6 |
| 20260506042200 | 25 | 123 | 3.2 | 11.3 | 0.00 | 0.00 | 0.00 | 86 | 1009.6 |
| 20260506041655 | 25 | 121 | 3.2 | 12.9 | 0.00 | 0.00 | 0.00 | 85 | 1009.7 |
| 20260506041149 | 25 | 164 | 3.2 | 12.9 | 0.00 | 0.00 | 0.00 | 85 | 1009.6 |
| 20260506040643 | 25 | 136 | 3.2 | 11.3 | 0.00 | 0.00 | 0.00 | 85 | 1009.5 |
| 20260506040137 | 25 | 142 | 3.2 | 12.9 | 0.00 | 0.00 | 0.00 | 85 | 1009.6 |
| 20260506035631 | 25 | 161 | 3.2 | 12.9 | 0.00 | 0.00 | 0.00 | 85 | 1009.3 |
| 20260506035125 | 25 | 150 | 3.2 | 11.3 | 0.00 | 0.00 | 0.00 | 85 | 1009.3 |
| 20260506034619 | 25 | 147 | 3.2 | 12.9 | 0.00 | 0.00 | 0.00 | 85 | 1009.2 |
| 20260506034113 | 25 | 163 | 3.2 | 12.9 | 0.00 | 0.00 | 0.00 | 84 | 1009.1 |
| 20260506033838 | 25 | 140 | 3.2 | 9.7 | 0.00 | 0.00 | 0.00 | 84 | 1009.0 |
| 20260506033101 | 25 | 132 | 3.2 | 9.7 | 0.00 | 0.00 | 0.00 | 84 | 1008.9 |
| 20260506032826 | 25 | 198 | 3.2 | 14.5 | 0.00 | 0.00 | 0.00 | 84 | 1008.9 |
| 20260506032049 | 26 | 152 | 3.2 | 14.5 | 0.00 | 0.00 | 0.00 | 83 | 1008.8 |
| 20260506031543 | 26 | 128 | 3.2 | 11.3 | 0.00 | 0.00 | 0.00 | 83 | 1008.7 |
| 20260506031037 | 26 | 121 | 4.8 | 19.3 | 0.00 | 0.00 | 0.00 | 82 | 1008.6 |
| 20260506030531 | 26 | 97 | 4.8 | 19.3 | 0.00 | 0.00 | 0.00 | 82 | 1008.6 |
| 20260506025751 | 26 | 176 | 1.6 | 8.0 | 0.00 | 0.00 | 0.00 | 81 | 1008.3 |
| 20260506025013 | 26 | 138 | 1.6 | 11.3 | 0.00 | 0.00 | 0.00 | 80 | 1008.3 |
| 20260506024507 | 26 | 138 | 1.6 | 11.3 | 0.00 | 0.00 | 0.00 | 80 | 1008.4 |
| 20260506024000 | 26 | 132 | 1.6 | 11.3 | 0.00 | 0.00 | 0.00 | 79 | 1008.3 |
| 20260506023455 | 26 | 132 | 3.2 | 14.5 | 0.00 | 0.00 | 0.00 | 79 | 1008.0 |
| 20260506022949 | 27 | 117 | 3.2 | 14.5 | 0.00 | 0.00 | 0.00 | 78 | 1008.0 |
| 20260506022442 | 27 | 130 | 3.2 | 11.3 | 0.00 | 0.00 | 0.00 | 78 | 1007.9 |
| 20260506021937 | 27 | 111 | 3.2 | 14.5 | 0.00 | 0.00 | 0.00 | 77 | 1007.9 |
| 20260506021431 | 27 | 136 | 3.2 | 16.1 | 0.00 | 0.00 | 0.00 | 77 | 1007.9 |
| 20260506020419 | 27 | 128 | 3.2 | 12.9 | 0.00 | 0.00 | 0.00 | 77 | 1007.8 |
| 20260506015407 | 27 | 111 | 1.6 | 9.7 | 0.00 | 0.00 | 0.00 | 77 | 1007.8 |
| 20260506014907 | 27 | 109 | 1.6 | 6.4 | 0.00 | 0.00 | 0.00 | 77 | 1007.6 |
| 20260506014406 | 27 | 111 | 1.6 | 6.4 | 0.00 | 0.00 | 0.00 | 76 | 1007.6 |
| 20260506014137 | 27 | 109 | 1.6 | 6.4 | 0.00 | 0.00 | 0.00 | 76 | 1007.4 |
| 20260506013637 | 27 | 111 | 0.0 | 4.8 | 0.00 | 0.00 | 0.00 | 76 | 1007.4 |
| 20260506012903 | 27 | 111 | 0.0 | 4.8 | 0.00 | 0.00 | 0.00 | 76 | 1007.3 |
| 20260506012403 | 27 | 112 | 0.0 | 0.0 | 0.00 | 0.00 | 0.00 | 75 | 1007.2 |
| 20260506011903 | 27 | 113 | 0.0 | 0.0 | 0.00 | 0.00 | 0.00 | 75 | 1007.2 |
| 20260506011401 | 28 | 113 | 0.0 | 0.0 | 0.00 | 0.00 | 0.00 | 75 | 1007.2 |
| 20260506010859 | 28 | 113 | 0.0 | 0.0 | 0.00 | 0.00 | 0.00 | 74 | 1007.2 |
| 20260506010358 | 28 | 113 | 0.0 | 0.0 | 0.00 | 0.00 | 0.00 | 74 | 1007.2 |
| 20260506005857 | 28 | 113 | 0.0 | 0.0 | 0.00 | 0.00 | 0.00 | 73 | 1007.1 |
| 20260506005357 | 28 | 113 | 0.0 | 0.0 | 0.00 | 0.00 | 0.00 | 72 | 1007.1 |
| 20260506004855 | 28 | 113 | 0.0 | 0.0 | 0.00 | 0.00 | 0.00 | 71 | 1007.0 |
| 20260506004353 | 29 | 113 | 0.0 | 0.0 | 0.00 | 0.00 | 0.00 | 71 | 1006.9 |
| 20260506003851 | 29 | 113 | 0.0 | 0.0 | 0.00 | 0.00 | 0.00 | 70 | 1007.1 |
| 20260506003349 | 29 | 113 | 0.0 | 0.0 | 0.00 | 0.00 | 0.00 | 70 | 1007.1 |
| 20260506003122 | 29 | 113 | 0.0 | 0.0 | 0.00 | 0.00 | 0.00 | 69 | 1007.1 |
| 20260506002347 | 30 | 113 | 0.0 | 0.0 | 0.00 | 0.00 | 0.00 | 69 | 1007.1 |
| 20260506001844 | 30 | 113 | 0.0 | 0.0 | 0.00 | 0.00 | 0.00 | 69 | 1007.0 |
| 20260506001345 | 30 | 113 | 0.0 | 0.0 | 0.00 | 0.00 | 0.00 | 69 | 1007.0 |
| 20260506000845 | 30 | 113 | 0.0 | 0.0 | 0.00 | 0.00 | 0.00 | 69 | 1006.9 |
| 20260506000346 | 30 | 113 | 0.0 | 0.0 | 0.00 | 0.00 | 0.00 | 69 | 1006.9 |
| 20260505235843 | 30 | 113 | 0.0 | 3.2 | 0.00 | 0.00 | 0.00 | 68 | 1006.9 |
| 20260505235615 | 30 | 113 | 0.0 | 3.2 | 0.00 | 0.00 | 0.00 | 68 | 1006.9 |
| 20260505234843 | 30 | 113 | 0.0 | 3.2 | 0.00 | 0.00 | 0.00 | 68 | 1006.9 |
| 20260505234343 | 30 | 113 | 1.6 | 6.4 | 0.00 | 0.00 | 0.00 | 68 | 1006.9 |
| 20260505233843 | 30 | 113 | 1.6 | 6.4 | 0.00 | 0.00 | 0.00 | 68 | 1006.9 |
| 20260505233343 | 30 | 108 | 3.2 | 9.7 | 0.00 | 0.00 | 0.00 | 67 | 1006.9 |
| 20260505232843 | 30 | 102 | 1.6 | 9.7 | 0.00 | 0.00 | 0.00 | 68 | 1006.8 |
| 20260505232339 | 30 | 156 | 0.0 | 4.8 | 0.00 | 0.00 | 0.00 | 69 | 1006.9 |
| 20260505231839 | 30 | 156 | 1.6 | 9.7 | 0.00 | 0.00 | 0.00 | 69 | 1006.8 |
| 20260505231610 | 30 | 156 | 1.6 | 9.7 | 0.00 | 0.00 | 0.00 | 68 | 1006.9 |
| 20260505230839 | 30 | 212 | 1.6 | 4.8 | 0.00 | 0.00 | 0.00 | 69 | 1006.8 |
| 20260505230611 | 30 | 217 | 1.6 | 6.4 | 0.00 | 0.00 | 0.00 | 68 | 1006.8 |
| 20260505225839 | 29 | 217 | 3.2 | 6.4 | 0.00 | 0.00 | 0.00 | 69 | 1006.8 |
| 20260505224838 | 29 | 213 | 3.2 | 11.3 | 0.00 | 0.00 | 0.00 | 69 | 1006.8 |
| 20260505224339 | 29 | 217 | 3.2 | 11.3 | 0.00 | 0.00 | 0.00 | 68 | 1006.8 |
| 20260505223837 | 29 | 158 | 1.6 | 8.0 | 0.00 | 0.00 | 0.00 | 69 | 1006.9 |
| 20260505223337 | 29 | 157 | 1.6 | 12.9 | 0.00 | 0.00 | 0.00 | 70 | 1006.9 |
| 20260505222837 | 29 | 157 | 3.2 | 12.9 | 0.00 | 0.00 | 0.00 | 69 | 1006.8 |
| 20260505222334 | 29 | 271 | 3.2 | 11.3 | 0.00 | 0.00 | 0.00 | 70 | 1006.8 |
| 20260505221833 | 28 | 251 | 3.2 | 11.3 | 0.00 | 0.00 | 0.00 | 70 | 1006.8 |
| 20260505221330 | 28 | 234 | 4.8 | 11.3 | 0.00 | 0.00 | 0.00 | 70 | 1006.8 |
| 20260505220833 | 28 | 159 | 4.8 | 11.3 | 0.00 | 0.00 | 0.00 | 71 | 1006.9 |
| 20260505220331 | 28 | 159 | 4.8 | 11.3 | 0.00 | 0.00 | 0.00 | 70 | 1006.9 |
| 20260505215331 | 29 | 170 | 4.8 | 12.9 | 0.00 | 0.00 | 0.00 | 69 | 1007.0 |
| 20260505214830 | 29 | 150 | 4.8 | 12.9 | 0.00 | 0.00 | 0.00 | 69 | 1007.0 |
| 20260505214328 | 29 | 196 | 3.2 | 9.7 | 0.00 | 0.00 | 0.00 | 69 | 1007.1 |
| 20260505213827 | 29 | 153 | 3.2 | 14.5 | 0.00 | 0.00 | 0.00 | 69 | 1007.2 |
| 20260505213327 | 29 | 153 | 3.2 | 14.5 | 0.00 | 0.00 | 0.00 | 69 | 1007.2 |
| 20260505213057 | 30 | 116 | 3.2 | 11.3 | 0.00 | 0.00 | 0.00 | 69 | 1007.3 |
| 20260505212327 | 30 | 194 | 3.2 | 11.3 | 0.00 | 0.00 | 0.00 | 69 | 1007.4 |
| 20260505211827 | 30 | 271 | 3.2 | 11.3 | 0.00 | 0.00 | 0.00 | 68 | 1007.4 |
| 20260505211329 | 30 | 218 | 1.6 | 6.4 | 0.00 | 0.00 | 0.00 | 69 | 1007.4 |
| 20260505211053 | 29 | 218 | 3.2 | 9.7 | 0.00 | 0.00 | 0.00 | 70 | 1007.6 |
| 20260505210317 | 29 | 219 | 3.2 | 12.9 | 0.00 | 0.00 | 0.00 | 69 | 1007.6 |
| 20260505210041 | 29 | 229 | 3.2 | 12.9 | 0.00 | 0.00 | 0.00 | 69 | 1007.7 |
| 20260505205305 | 29 | 151 | 4.8 | 14.5 | 0.00 | 0.00 | 0.00 | 68 | 1007.8 |
| 20260505204759 | 29 | 224 | 3.2 | 14.5 | 0.00 | 0.00 | 0.00 | 68 | 1007.9 |
| 20260505204523 | 29 | 200 | 3.2 | 11.3 | 0.00 | 0.00 | 0.00 | 70 | 1007.9 |
| 20260505203747 | 29 | 202 | 3.2 | 11.3 | 0.00 | 0.00 | 0.00 | 69 | 1008.1 |
| 20260505203241 | 28 | 215 | 3.2 | 14.5 | 0.00 | 0.00 | 0.00 | 71 | 1008.1 |
| 20260505202735 | 28 | 278 | 4.8 | 14.5 | 0.00 | 0.00 | 0.00 | 73 | 1008.2 |
| 20260505202228 | 28 | 158 | 4.8 | 11.3 | 0.00 | 0.00 | 0.00 | 72 | 1008.2 |
| 20260505201954 | 28 | 163 | 4.8 | 11.3 | 0.00 | 0.00 | 0.00 | 72 | 1008.4 |
| 20260505201216 | 28 | 177 | 4.8 | 11.3 | 0.00 | 0.00 | 0.00 | 72 | 1008.4 |
| 20260505200710 | 28 | 163 | 3.2 | 11.3 | 0.00 | 0.00 | 0.00 | 72 | 1008.5 |
| 20260505200205 | 28 | 153 | 3.2 | 11.3 | 0.00 | 0.00 | 0.00 | 71 | 1008.5 |
| 20260505195659 | 28 | 187 | 3.2 | 8.0 | 0.00 | 0.00 | 0.00 | 72 | 1008.5 |
| 20260505195153 | 28 | 180 | 3.2 | 8.0 | 0.00 | 0.00 | 0.00 | 72 | 1008.6 |
| 20260505194647 | 28 | 168 | 3.2 | 8.0 | 0.00 | 0.00 | 0.00 | 72 | 1008.6 |
| 20260505194140 | 28 | 177 | 3.2 | 11.3 | 0.00 | 0.00 | 0.00 | 71 | 1008.7 |
| 20260505193907 | 28 | 205 | 1.6 | 11.3 | 0.00 | 0.00 | 0.00 | 72 | 1008.8 |
| 20260505193359 | 28 | 206 | 3.2 | 12.9 | 0.00 | 0.00 | 0.00 | 73 | 1008.7 |
| 20260505192622 | 27 | 178 | 3.2 | 12.9 | 0.00 | 0.00 | 0.00 | 73 | 1008.8 |
| 20260505192116 | 27 | 301 | 3.2 | 12.9 | 0.00 | 0.00 | 0.00 | 73 | 1008.8 |
| 20260505191611 | 27 | 223 | 4.8 | 12.9 | 0.00 | 0.00 | 0.00 | 73 | 1008.9 |
| 20260505191105 | 27 | 233 | 4.8 | 17.7 | 0.00 | 0.00 | 0.00 | 74 | 1009.0 |
| 20260505190053 | 27 | 202 | 1.6 | 9.7 | 0.00 | 0.00 | 0.00 | 75 | 1009.1 |
| 20260505185817 | 27 | 219 | 1.6 | 12.9 | 0.00 | 0.00 | 0.00 | 74 | 1009.2 |
| 20260505185041 | 27 | 209 | 1.6 | 12.9 | 0.00 | 0.00 | 0.00 | 75 | 1009.5 |
| 20260505184535 | 27 | 244 | 1.6 | 11.3 | 0.00 | 0.00 | 0.00 | 76 | 1009.5 |
| 20260505184029 | 27 | 244 | 1.6 | 11.3 | 0.00 | 0.00 | 0.00 | 76 | 1009.6 |
| 20260505183524 | 26 | 205 | 1.6 | 9.7 | 0.00 | 0.00 | 0.00 | 77 | 1009.7 |
| 20260505183024 | 26 | 259 | 3.2 | 9.7 | 0.00 | 0.00 | 0.00 | 76 | 1009.7 |
| 20260505182522 | 26 | 194 | 3.2 | 9.7 | 0.00 | 0.00 | 0.00 | 77 | 1009.9 |
| 20260505182252 | 26 | 242 | 3.2 | 9.7 | 0.00 | 0.00 | 0.00 | 77 | 1009.9 |
| 20260505181522 | 26 | 223 | 3.2 | 12.9 | 0.00 | 0.00 | 0.00 | 77 | 1010.0 |
| 20260505181022 | 26 | 280 | 3.2 | 12.9 | 0.00 | 0.00 | 0.00 | 79 | 1010.0 |
| 20260505180522 | 26 | 160 | 3.2 | 14.5 | 0.00 | 0.00 | 0.00 | 79 | 1010.0 |